Retour au catalogue

STARLINK-32364

ActifCommunicationsVLEO
NORAD 61622·PAYLOAD·🇺🇸 United States

Lancé Oct 23, 2024 depuis Cape Canaveral Space Force Station

Loading…

Prochains Passages (prochaines 24 heures)

TLE

FraisSource: CelesTrak SupGP

Époque: Sep 14, 2026, 22:30 UTC

1 61622C 24191B   26257.93798611 -.00036934  00000+0 -13376-2 0  2575
2 61622  43.0000 165.6087 0001210 266.9846 354.4268 15.27600687    19

Suivez STARLINK-32364 en temps réel avec AllMySat

Download on the App Store